This demonstration page uses our WeatherBlox Daily Observations layout. Learn more.

Left ArrowRight Arrow

38.89511, -77.03637

Hourly Observations for November 29, 2015

Temp ( °F °C ) Dew Point ( °F °C ) Humidity (%) Winds ( mph kmh ) Pressure ( in mb ) Visibility ( mi km ) Precip ( " mm )
12:40 am 00:40 Cloudy with Drizzle 55 13 54 12 94 94 NE 9 15 30.18 1022 7 11 N/A
12:52 am 00:52 Cloudy with Drizzle 55 12.8 53 11.7 93 93 NE 8 13 30.17 1022 7 11 N/A
1:36 am 01:36 Cloudy with Light Rain 55 13 54 12 94 94 NNE 8 13 30.18 1022 5 8 N/A
1:52 am 01:52 Cloudy with Light Rain 54 12.2 52 11.1 93 93 ENE 9 15 30.17 1022 5 8 0.01 0.25
2:07 am 02:07 Cloudy with Light Rain 54 12.2 52 11.1 93 93 ENE 8 13 30.18 1022 5 8 0.01 0.25
2:52 am 02:52 Cloudy with Drizzle 54 12.2 52 11.1 93 93 NE 9 15 30.18 1022 5 8 0.01 0.25
3:52 am 03:52 Cloudy with Drizzle 53 11.7 51 10.6 93 93 NNE 9 15 30.17 1022 5 8 N/A
4:16 am 04:16 Cloudy with Light Rain 54 12 52 11 94 94 NNE 8 13 30.18 1022 6 10 N/A
4:43 am 04:43 Cloudy with Light Rain 52 11.1 50 10 93 93 NE 10 17 30.18 1022 6 10 N/A
4:52 am 04:52 Cloudy with Light Rain 52 11.1 50 10 93 93 NNE 10 17 30.17 1022 6 10 N/A
5:08 am 05:08 Cloudy with Light Rain 52 11 50 10 94 94 NNE 10 17 30.18 1022 7 11 N/A
5:29 am 05:29 Cloudy with Light Rain 51 10.6 49 9.4 92 92 NE 10 17 30.18 1022 7 11 N/A
5:49 am 05:49 Cloudy with Light Rain 52 11 48 9 88 88 NE 9 15 30.18 1022 7 11 0.01 0.25
5:52 am 05:52 Cloudy with Light Rain 51 10.6 49 9.4 92 92 NE 9 15 30.18 1022 7 11 0.01 0.25
6:13 am 06:13 Cloudy with Light Rain 50 10 48 8.9 93 93 NNE 12 19 30.21 1023 6 10 0.01 0.25
6:52 am 06:52 Cloudy with Light Rain 50 10 48 8.9 93 93 NNE 7 11 30.21 1023 10 16 0.04 1.02
7:12 am 07:12 Cloudy with Light Rain 50 10 46 8 88 88 NE 9 15 30.21 1023 10 16 N/A
7:52 am 07:52 Cloudy with Light Rain 50 10 47 8.3 89 89 NNE 8 13 30.22 1023 5 8 0.02 0.51
8:21 am 08:21 Cloudy with Light Rain 49 9.4 47 8.3 93 93 NNE 10 17 30.24 1024 7 11 0.02 0.51
8:52 am 08:52 Cloudy with Light Rain 49 9.4 47 8.3 93 93 NNE 10 17 30.23 1024 10 16 0.05 1.27
9:41 am 09:41 Cloudy with Light Rain 48 8.9 46 7.8 93 93 NE 9 15 30.24 1024 9 14 0.02 0.51
9:52 am 09:52 Cloudy with Light Rain 48 8.9 45 7.2 89 89 NE 15 24 30.24 1024 10 16 0.02 0.51
10:15 am 10:15 Cloudy with Light Rain 49 9.4 46 7.8 90 90 NNE 12 19 30.24 1024 10 16 N/A
10:24 am 10:24 Cloudy with Light Rain 48 9 46 8 94 94 NNE 14 22 30.24 1024 10 16 N/A
10:52 am 10:52 Cloudy with Drizzle 48 8.9 46 7.8 93 93 NE 9 15 30.25 1024 4 6 0.01 0.25
10:54 am 10:54 Cloudy with Drizzle 48 9 46 8 94 94 NNE 10 17 30.24 1024 3 5 N/A
11:05 am 11:05 Cloudy with Drizzle 48 8.9 45 7.2 89 89 NE 10 17 30.24 1024 3 5 N/A
11:20 am 11:20 Cloudy with Drizzle 48 9 45 7 87 87 NE 8 13 30.24 1024 5 8 N/A
11:28 am 11:28 Cloudy with Drizzle 46 8 46 8 100 100 NE 10 17 30.24 1024 3 5 N/A
11:52 am 11:52 Cloudy with Drizzle 48 8.9 45 7.2 89 89 NE 7 11 30.22 1024 7 11 N/A
12:14 pm 12:14 Cloudy with Drizzle 46 8 45 7 93 93 N 9 15 30.24 1024 6 10 N/A
12:25 pm 12:25 Cloudy with Drizzle 47 8.3 45 7.2 93 93 NNE 8 13 30.24 1024 5 8 N/A
12:52 pm 12:52 Cloudy 48 8.9 45 7.2 89 89 NNE 8 13 30.23 1024 10 16 N/A
1:31 pm 13:31 Cloudy 48 8.9 45 7.2 89 89 NE 7 11 30.21 1023 10 16 N/A
1:52 pm 13:52 Cloudy 48 8.9 45 7.2 89 89 NE 8 13 30.21 1023 10 16 N/A
2:09 pm 14:09 Cloudy 48 8.9 45 7.2 89 89 NE 8 13 30.21 1023 10 16 N/A
2:43 pm 14:43 Cloudy with Drizzle 48 8.9 45 7.2 89 89 NNE 10 17 30.21 1023 6 10 N/A
2:52 pm 14:52 Cloudy with Drizzle 47 8.3 45 7.2 93 93 NE 8 13 30.21 1023 6 10 N/A
3:06 pm 15:06 Cloudy with Drizzle 46 8 45 7 93 93 NE 7 11 30.21 1023 6 10 N/A
3:31 pm 15:31 Cloudy with Drizzle 47 8.3 45 7.2 93 93 ENE 8 13 30.21 1023 5 8 N/A
3:52 pm 15:52 Cloudy 47 8.3 45 7.2 93 93 NE 7 11 30.23 1024 9 14 N/A
4:52 pm 16:52 Cloudy 47 8.3 45 7.2 93 93 NNE 8 13 30.22 1023 9 14 N/A
5:32 pm 17:32 Cloudy 46 8 45 7 93 93 NNE 5 7 30.24 1024 10 16 N/A
5:41 pm 17:41 Cloudy 48 8.9 44 6.7 86 86 NNE 6 9 30.24 1024 10 16 N/A
5:46 pm 17:46 Cloudy 48 9 45 7 87 87 NNE 7 11 30.24 1024 10 16 N/A
5:52 pm 17:52 Cloudy 48 8.9 44 6.7 86 86 NNE 6 9 30.24 1024 10 16 N/A
5:56 pm 17:56 Cloudy 48 8.9 44 6.7 86 86 NNE 7 11 30.24 1024 10 16 N/A
6:29 pm 18:29 Cloudy 48 8.9 44 6.7 86 86 NE 8 13 30.24 1024 10 16 N/A
6:52 pm 18:52 Cloudy 47 8.3 43 6.1 86 86 NNE 9 15 30.26 1025 10 16 N/A
7:52 pm 19:52 Cloudy 47 8.3 42 5.6 83 83 NNE 10 17 30.28 1025 10 16 N/A
8:07 pm 20:07 Cloudy 47 8.3 42 5.6 83 83 NNE 9 15 30.27 1025 10 16 N/A
8:52 pm 20:52 Cloudy 47 8.3 41 5 80 80 NNE 9 15 30.28 1025 10 16 N/A
9:52 pm 21:52 Cloudy 46 7.8 39 3.9 77 77 N 9 15 30.30 1026 10 16 N/A
10:52 pm 22:52 Cloudy 46 7.8 36 2.2 68 68 NNE 10 17 30.30 1026 10 16 N/A
11:52 pm 23:52 Cloudy 45 7.2 34 1.1 66 66 N 12 19 30.32 1027 10 16 N/A

Powered by AerisWeather